Weather in Ubud

Indonesia     8°30′21″S   115°15′36″E
temp.,
°C
wind,
m/s
gust,
m/s
humid.,
%
clouds,
%
prec.,
mm/h
press.,
hPa
HPBL,
m
10 april, sat
sat1023:00+23n219439 0.0 101123
02:00+22n119386 0.0 101021
05:00+22nne219477 0.0 101024
08:00+25nne018144 0.0 1012119
11:00+31s32574 0.1 10121379
14:00+28sse228213 2.9 1010758
17:00+28sse22792 1.6 1010403
20:00+23nne119716 3.5 101327
11 april, sun
sun1123:00+22n21970 0.0 101326
02:00+22n219426 0.0 101222
05:00+22n219349 0.0 101229
08:00+25n118062 0.0 101374
11:00+31s235048 0.0 10131355
14:00+31s33515 0.0 10101529
17:00+28s23645 0.0 1010683
20:00+23n11896 0.0 101324
12 april, mon
mon1223:00+23n21865 0.0 101325
02:00+23n218612 0.0 101226
05:00+22n218519 0.0 101225
08:00+26nnw117012 0.1 1014218
11:00+30s33515 0.1 10131430
14:00+30s33530 0.1 10101399
17:00+27s22650 0.0 1010833
20:00+23n11893 0.0 101220
13 april, tue
tue1323:00+23n21880 0.0 101331
02:00+22n218999 0.2 101231
05:00+22n219080 0.3 101227
08:00+26nnw01746 0.3 1014223
11:00+30s325527 0.1 10131455
14:00+29ssw326165 0.6 10101044
17:00+27ssw226749 0.4 1010731
20:00+22n11915 0.4 101221
14 april, wed
wed1423:00+22n218920 0.0 101327
02:00+21n218941 0.0 101228
05:00+21n218995 0.0 101228
08:00+25ne117464 0.0 1013202
11:00+30sse32505 0.0 10121359
14:00+30sse42495 0.0 10101466
17:00+27sse22635 0.0 1010630
20:00+22nne219198 0.0 101235